owner,sensor,date,latitude,longitude,vertical_datum,wind_speed,wind_to_direction,wind_speed_of_gust,qcFlag 
NDBC,ioos:station:NOAA.NDBC:CDRF1:1,2015-08-01T01:00:00Z,29.1360,-83.0290,10.0,4.1,220.0,5.1,'1111122,1111122,1111122' 
NDBC,ioos:station:NOAA.NDBC:CDRF1:1,2015-08-01T04:00:00Z,29.1360,-83.0290,10.0,4.1,230.0,5.1,'1111122,1111122,1111122' 
NDBC,ioos:station:NOAA.NDBC:CDRF1:1,2015-08-01T05:00:00Z,29.1360,-83.0290,10.0,6.2,230.0,7.7,'1111122,1111122,1111122' 
NDBC,ioos:station:NOAA.NDBC:CDRF1:1,2015-08-01T07:00:00Z,29.1360,-83.0290,10.0,4.6,240.0,5.7,'1111122,1111122,1111122' 
NDBC,ioos:station:NOAA.NDBC:CDRF1:1,2015-08-01T11:00:00Z,29.1360,-83.0290,10.0,7.7,220.0,11.3,'1111122,1111122,1111122' 
NDBC,ioos:station:NOAA.NDBC:CDRF1:1,2015-08-01T12:00:00Z,29.1360,-83.0290,10.0,8.2,210.0,11.8,'1111122,1111122,1111122' 
NDBC,ioos:station:NOAA.NDBC:CDRF1:1,2015-08-01T14:00:00Z,29.1360,-83.0290,10.0,7.2,230.0,10.8,'1111122,1111122,1111122' 
NDBC,ioos:station:NOAA.NDBC:CDRF1:1,2015-08-01T15:00:00Z,29.1360,-83.0290,10.0,7.7,240.0,10.3,'1111122,1111122,1111122' 
NDBC,ioos:station:NOAA.NDBC:CDRF1:1,2015-08-01T17:00:00Z,29.1360,-83.0290,10.0,5.7,230.0,7.7,'1111122,1111122,1111122' 
NDBC,ioos:station:NOAA.NDBC:CDRF1:1,2015-08-01T18:00:00Z,29.1360,-83.0290,10.0,5.1,240.0,7.2,'1111122,1111122,1111122' 
NDBC,ioos:station:NOAA.NDBC:CDRF1:1,2015-08-01T19:00:00Z,29.1360,-83.0290,10.0,6.7,230.0,8.8,'1111122,1111122,1111122' 
NDBC,ioos:station:NOAA.NDBC:CDRF1:1,2015-08-01T20:00:00Z,29.1360,-83.0290,10.0,6.7,230.0,8.2,'1111122,1111122,1111122' 
NDBC,ioos:station:NOAA.NDBC:CDRF1:1,2015-08-01T21:00:00Z,29.1360,-83.0290,10.0,4.6,220.0,6.7,'1111122,1111122,1111122' 
NDBC,ioos:station:NOAA.NDBC:CDRF1:1,2015-08-01T22:00:00Z,29.1360,-83.0290,10.0,6.2,230.0,8.2,'1111122,1111122,1111122' 
NDBC,ioos:station:NOAA.NDBC:CDRF1:1,2015-08-01T23:00:00Z,29.1360,-83.0290,10.0,10.3,210.0,12.9,'1111122,1111122,1111122' 
NDBC,ioos:station:NOAA.NDBC:CDRF1:1,2015-08-02T00:00:00Z,29.1360,-83.0290,10.0,7.7,230.0,10.3,'1111122,1111122,1111122' 
NDBC,ioos:station:NOAA.NDBC:CDRF1:1,2015-08-02T01:00:00Z,29.1360,-83.0290,10.0,8.2,220.0,10.3,'1111122,1111122,1111122' 
NDBC,ioos:station:NOAA.NDBC:CDRF1:1,2015-08-02T02:00:00Z,29.1360,-83.0290,10.0,8.2,210.0,10.8,'1111122,1111122,1111122' 
NDBC,ioos:station:NOAA.NDBC:CDRF1:1,2015-08-02T03:00:00Z,29.1360,-83.0290,10.0,7.7,210.0,9.8,'1111122,1111122,1111122' 
NDBC,ioos:station:NOAA.NDBC:CDRF1:1,2015-08-02T04:00:00Z,29.1360,-83.0290,10.0,8.2,190.0,9.8,'1111122,1111122,1111122' 
NDBC,ioos:station:NOAA.NDBC:CDRF1:1,2015-08-02T05:00:00Z,29.1360,-83.0290,10.0,5.7,220.0,7.7,'1111122,1111122,1111122' 
NDBC,ioos:station:NOAA.NDBC:CDRF1:1,2015-08-02T06:00:00Z,29.1360,-83.0290,10.0,11.3,210.0,13.4,'1111122,1111122,1111122' 
NDBC,ioos:station:NOAA.NDBC:CDRF1:1,2015-08-02T08:00:00Z,29.1360,-83.0290,10.0,7.7,230.0,9.3,'1111122,1111122,1111122' 
NDBC,ioos:station:NOAA.NDBC:CDRF1:1,2015-08-02T09:00:00Z,29.1360,-83.0290,10.0,7.2,220.0,9.8,'1111122,1111122,1111122' 
NDBC,ioos:station:NOAA.NDBC:CDRF1:1,2015-08-02T11:00:00Z,29.1360,-83.0290,10.0,7.2,220.0,9.8,'1111122,1111122,1111122' 
NDBC,ioos:station:NOAA.NDBC:CDRF1:1,2015-08-02T12:00:00Z,29.1360,-83.0290,10.0,7.7,220.0,10.8,'1111122,1111122,1111122' 
NDBC,ioos:station:NOAA.NDBC:CDRF1:1,2015-08-03T04:00:00Z,29.1360,-83.0290,10.0,5.7,200.0,6.7,'1111122,1111122,1111122' 
NDBC,ioos:station:NOAA.NDBC:CDRF1:1,2015-08-03T05:00:00Z,29.1360,-83.0290,10.0,3.1,300.0,3.6,'1111122,1111122,1111122' 
NDBC,ioos:station:NOAA.NDBC:CDRF1:1,2015-08-03T06:00:00Z,29.1360,-83.0290,10.0,1.5,290.0,2.1,'1111122,1111122,1111122' 
NDBC,ioos:station:NOAA.NDBC:CDRF1:1,2015-08-04T04:00:00Z,29.1360,-83.0290,10.0,4.1,260.0,5.1,'1111122,1111122,1111122' 
NDBC,ioos:station:NOAA.NDBC:CDRF1:1,2015-08-04T05:00:00Z,29.1360,-83.0290,10.0,4.1,250.0,5.7,'1111122,1111122,1111122' 
NDBC,ioos:station:NOAA.NDBC:CDRF1:1,2015-08-04T06:00:00Z,29.1360,-83.0290,10.0,4.1,250.0,5.7,'1111122,1111122,1111122' 
NDBC,ioos:station:NOAA.NDBC:CDRF1:1,2015-08-04T07:00:00Z,29.1360,-83.0290,10.0,4.1,250.0,5.1,'1111122,1111122,1111122' 
NDBC,ioos:station:NOAA.NDBC:CDRF1:1,2015-08-04T08:00:00Z,29.1360,-83.0290,10.0,5.1,250.0,6.2,'1111122,1111122,1111122' 
NDBC,ioos:station:NOAA.NDBC:CDRF1:1,2015-08-04T09:00:00Z,29.1360,-83.0290,10.0,4.1,250.0,5.7,'1111122,1111122,1111122' 
NDBC,ioos:station:NOAA.NDBC:CDRF1:1,2015-08-04T10:00:00Z,29.1360,-83.0290,10.0,4.6,240.0,5.7,'1111122,1111122,1111122' 
NDBC,ioos:station:NOAA.NDBC:CDRF1:1,2015-08-04T11:00:00Z,29.1360,-83.0290,10.0,4.6,250.0,5.7,'1111122,1111122,1111122' 
NDBC,ioos:station:NOAA.NDBC:CDRF1:1,2015-08-04T12:00:00Z,29.1360,-83.0290,10.0,4.6,240.0,6.2,'1111122,1111122,1111122' 
NDBC,ioos:station:NOAA.NDBC:CDRF1:1,2015-08-04T14:00:00Z,29.1360,-83.0290,10.0,4.1,250.0,5.1,'1111122,1111122,1111122' 
NDBC,ioos:station:NOAA.NDBC:CDRF1:1,2015-08-04T21:00:00Z,29.1360,-83.0290,10.0,2.6,240.0,3.1,'1111122,1111122,1111122' 
NDBC,ioos:station:NOAA.NDBC:CDRF1:1,2015-08-04T22:00:00Z,29.1360,-83.0290,10.0,3.1,250.0,4.1,'1111122,1111122,1111122' 
NDBC,ioos:station:NOAA.NDBC:CDRF1:1,2015-08-05T00:00:00Z,29.1360,-83.0290,10.0,2.6,240.0,3.6,'1111122,1111122,1111122' 
NDBC,ioos:station:NOAA.NDBC:CDRF1:1,2015-08-05T02:00:00Z,29.1360,-83.0290,10.0,3.1,240.0,4.1,'1111122,1111122,1111122' 
NDBC,ioos:station:NOAA.NDBC:CDRF1:1,2015-08-05T03:00:00Z,29.1360,-83.0290,10.0,3.1,250.0,3.6,'1111122,1111122,1111122' 
NDBC,ioos:station:NOAA.NDBC:CDRF1:1,2015-08-05T04:00:00Z,29.1360,-83.0290,10.0,3.6,240.0,4.6,'1111122,1111122,1111122' 
NDBC,ioos:station:NOAA.NDBC:CDRF1:1,2015-08-05T05:00:00Z,29.1360,-83.0290,10.0,3.1,240.0,4.1,'1111122,1111122,1111122' 
NDBC,ioos:station:NOAA.NDBC:CDRF1:1,2015-08-05T06:00:00Z,29.1360,-83.0290,10.0,2.1,250.0,3.1,'1111122,1111122,1111122' 
NDBC,ioos:station:NOAA.NDBC:CDRF1:1,2015-08-05T07:00:00Z,29.1360,-83.0290,10.0,2.6,240.0,3.6,'1111122,1111122,1111122' 
NDBC,ioos:station:NOAA.NDBC:CDRF1:1,2015-08-05T08:00:00Z,29.1360,-83.0290,10.0,1.5,230.0,2.6,'1111122,1111122,1111122' 
NDBC,ioos:station:NOAA.NDBC:CDRF1:1,2015-08-05T09:00:00Z,29.1360,-83.0290,10.0,2.6,230.0,3.6,'1111122,1111122,1111122' 
NDBC,ioos:station:NOAA.NDBC:CDRF1:1,2015-08-05T10:00:00Z,29.1360,-83.0290,10.0,2.6,220.0,3.1,'1111122,1111122,1111122' 
NDBC,ioos:station:NOAA.NDBC:CDRF1:1,2015-08-05T11:00:00Z,29.1360,-83.0290,10.0,2.1,230.0,2.6,'1111122,1111122,1111122' 
NDBC,ioos:station:NOAA.NDBC:CDRF1:1,2015-08-05T12:00:00Z,29.1360,-83.0290,10.0,2.1,230.0,2.6,'1111122,1111122,1111122' 
NDBC,ioos:station:NOAA.NDBC:CDRF1:1,2015-08-05T13:00:00Z,29.1360,-83.0290,10.0,1.5,240.0,3.1,'1111122,1111122,1111122' 
NDBC,ioos:station:NOAA.NDBC:CDRF1:1,2015-08-05T14:00:00Z,29.1360,-83.0290,10.0,1.5,250.0,2.1,'1111122,1111122,1111122' 
NDBC,ioos:station:NOAA.NDBC:CDRF1:1,2015-08-05T16:00:00Z,29.1360,-83.0290,10.0,3.6,220.0,4.1,'1111122,1111122,1111122' 
NDBC,ioos:station:NOAA.NDBC:CDRF1:1,2015-08-05T17:00:00Z,29.1360,-83.0290,10.0,3.1,220.0,4.1,'1111122,1111122,1111122' 
NDBC,ioos:station:NOAA.NDBC:CDRF1:1,2015-08-05T19:00:00Z,29.1360,-83.0290,10.0,2.6,230.0,3.1,'1111122,1111122,1111122' 
NDBC,ioos:station:NOAA.NDBC:CDRF1:1,2015-08-05T20:00:00Z,29.1360,-83.0290,10.0,3.1,250.0,4.6,'1111122,1111122,1111122' 
NDBC,ioos:station:NOAA.NDBC:CDRF1:1,2015-08-05T21:00:00Z,29.1360,-83.0290,10.0,3.6,250.0,5.1,'1111122,1111122,1111122' 
NDBC,ioos:station:NOAA.NDBC:CDRF1:1,2015-08-05T23:00:00Z,29.1360,-83.0290,10.0,3.1,270.0,4.1,'1111122,1111122,1111122' 
NDBC,ioos:station:NOAA.NDBC:CDRF1:1,2015-08-06T00:00:00Z,29.1360,-83.0290,10.0,3.1,250.0,4.1,'1111122,1111122,1111122' 
NDBC,ioos:station:NOAA.NDBC:CDRF1:1,2015-08-06T02:00:00Z,29.1360,-83.0290,10.0,2.6,290.0,3.1,'1111122,1111122,1111122' 
NDBC,ioos:station:NOAA.NDBC:CDRF1:1,2015-08-06T03:00:00Z,29.1360,-83.0290,10.0,2.6,270.0,4.1,'1111122,1111122,1111122' 
NDBC,ioos:station:NOAA.NDBC:CDRF1:1,2015-08-06T04:00:00Z,29.1360,-83.0290,10.0,2.6,270.0,3.6,'1111122,1111122,1111122' 
NDBC,ioos:station:NOAA.NDBC:CDRF1:1,2015-08-06T05:00:00Z,29.1360,-83.0290,10.0,2.1,270.0,3.1,'1111122,1111122,1111122' 
NDBC,ioos:station:NOAA.NDBC:CDRF1:1,2015-08-06T06:00:00Z,29.1360,-83.0290,10.0,2.6,240.0,3.1,'1111122,1111122,1111122' 
NDBC,ioos:station:NOAA.NDBC:CDRF1:1,2015-08-06T08:00:00Z,29.1360,-83.0290,10.0,2.1,230.0,2.6,'1111122,1111122,1111122' 
NDBC,ioos:station:NOAA.NDBC:CDRF1:1,2015-08-06T09:00:00Z,29.1360,-83.0290,10.0,2.6,230.0,3.1,'1111122,1111122,1111122' 
NDBC,ioos:station:NOAA.NDBC:CDRF1:1,2015-08-06T11:00:00Z,29.1360,-83.0290,10.0,3.1,250.0,4.6,'1111122,1111122,1111122' 
NDBC,ioos:station:NOAA.NDBC:CDRF1:1,2015-08-06T12:00:00Z,29.1360,-83.0290,10.0,2.6,250.0,3.6,'1111122,1111122,1111122' 
NDBC,ioos:station:NOAA.NDBC:CDRF1:1,2015-08-06T13:00:00Z,29.1360,-83.0290,10.0,2.6,240.0,3.6,'1111122,1111122,1111122' 
NDBC,ioos:station:NOAA.NDBC:CDRF1:1,2015-08-06T14:00:00Z,29.1360,-83.0290,10.0,2.6,230.0,3.1,'1111122,1111122,1111122' 
NDBC,ioos:station:NOAA.NDBC:CDRF1:1,2015-08-06T15:00:00Z,29.1360,-83.0290,10.0,3.1,240.0,4.1,'1111122,1111122,1111122' 
NDBC,ioos:station:NOAA.NDBC:CDRF1:1,2015-08-06T16:00:00Z,29.1360,-83.0290,10.0,3.1,220.0,4.6,'1111122,1111122,1111122' 
NDBC,ioos:station:NOAA.NDBC:CDRF1:1,2015-08-06T17:00:00Z,29.1360,-83.0290,10.0,4.6,220.0,6.7,'1111122,1111122,1111122' 
NDBC,ioos:station:NOAA.NDBC:CDRF1:1,2015-08-06T18:00:00Z,29.1360,-83.0290,10.0,4.1,220.0,6.7,'1111122,1111122,1111122' 
NDBC,ioos:station:NOAA.NDBC:CDRF1:1,2015-08-06T19:00:00Z,29.1360,-83.0290,10.0,5.1,240.0,6.2,'1111122,1111122,1111122' 
NDBC,ioos:station:NOAA.NDBC:CDRF1:1,2015-08-06T20:00:00Z,29.1360,-83.0290,10.0,4.6,250.0,5.7,'1111122,1111122,1111122' 
NDBC,ioos:station:NOAA.NDBC:CDRF1:1,2015-08-06T22:00:00Z,29.1360,-83.0290,10.0,4.1,250.0,5.7,'1111122,1111122,1111122' 
NDBC,ioos:station:NOAA.NDBC:CDRF1:1,2015-08-06T23:00:00Z,29.1360,-83.0290,10.0,4.1,250.0,6.7,'1111122,1111122,1111122' 
NDBC,ioos:station:NOAA.NDBC:CDRF1:1,2015-08-07T00:00:00Z,29.1360,-83.0290,10.0,4.6,260.0,6.2,'1111122,1111122,1111122' 
NDBC,ioos:station:NOAA.NDBC:CDRF1:1,2015-08-07T08:00:00Z,29.1360,-83.0290,10.0,6.2,240.0,8.2,'1111122,1111122,1111122' 
NDBC,ioos:station:NOAA.NDBC:CDRF1:1,2015-08-07T10:00:00Z,29.1360,-83.0290,10.0,6.2,260.0,8.2,'1111122,1111122,1111122' 
NDBC,ioos:station:NOAA.NDBC:CDRF1:1,2015-08-07T11:00:00Z,29.1360,-83.0290,10.0,4.6,250.0,7.2,'1111122,1111122,1111122' 
NDBC,ioos:station:NOAA.NDBC:CDRF1:1,2015-08-07T12:00:00Z,29.1360,-83.0290,10.0,4.6,270.0,6.7,'1111122,1111122,1111122' 
NDBC,ioos:station:NOAA.NDBC:CDRF1:1,2015-08-07T13:00:00Z,29.1360,-83.0290,10.0,4.6,260.0,5.7,'1111122,1111122,1111122' 
NDBC,ioos:station:NOAA.NDBC:CDRF1:1,2015-08-07T14:00:00Z,29.1360,-83.0290,10.0,5.7,270.0,7.2,'1111122,1111122,1111122' 
NDBC,ioos:station:NOAA.NDBC:CDRF1:1,2015-08-07T15:00:00Z,29.1360,-83.0290,10.0,6.2,270.0,8.2,'1111122,1111122,1111122' 
NDBC,ioos:station:NOAA.NDBC:CDRF1:1,2015-08-07T16:00:00Z,29.1360,-83.0290,10.0,8.8,300.0,10.3,'1111122,1111122,1111122' 
NDBC,ioos:station:NOAA.NDBC:CDRF1:1,2015-08-07T17:00:00Z,29.1360,-83.0290,10.0,6.2,250.0,7.2,'1111122,1111122,1111122' 
NDBC,ioos:station:NOAA.NDBC:CDRF1:1,2015-08-07T18:00:00Z,29.1360,-83.0290,10.0,5.1,250.0,8.2,'1111122,1111122,1111122' 
NDBC,ioos:station:NOAA.NDBC:CDRF1:1,2015-08-07T19:00:00Z,29.1360,-83.0290,10.0,8.8,260.0,11.3,'1111122,1111122,1111122' 
NDBC,ioos:station:NOAA.NDBC:CDRF1:1,2015-08-07T20:00:00Z,29.1360,-83.0290,10.0,7.2,250.0,10.8,'1111122,1111122,1111122' 
NDBC,ioos:station:NOAA.NDBC:CDRF1:1,2015-08-07T21:00:00Z,29.1360,-83.0290,10.0,7.2,240.0,10.3,'1111122,1111122,1111122' 
NDBC,ioos:station:NOAA.NDBC:CDRF1:1,2015-08-07T22:00:00Z,29.1360,-83.0290,10.0,5.7,250.0,8.8,'1111122,1111122,1111122' 
NDBC,ioos:station:NOAA.NDBC:CDRF1:1,2015-08-07T23:00:00Z,29.1360,-83.0290,10.0,5.1,270.0,8.2,'1111122,1111122,1111122' 
NDBC,ioos:station:NOAA.NDBC:CDRF1:1,2015-08-08T00:00:00Z,29.1360,-83.0290,10.0,6.2,260.0,8.8,'1111122,1111122,1111122' 
NDBC,ioos:station:NOAA.NDBC:CDRF1:1,2015-08-08T01:00:00Z,29.1360,-83.0290,10.0,3.6,40.0,4.1,'1111122,1111122,1111122' 
NDBC,ioos:station:NOAA.NDBC:CDRF1:1,2015-08-08T02:00:00Z,29.1360,-83.0290,10.0,4.1,280.0,6.2,'1111122,1111122,1111122' 
NDBC,ioos:station:NOAA.NDBC:CDRF1:1,2015-08-08T03:00:00Z,29.1360,-83.0290,10.0,4.6,270.0,6.2,'1111122,1111122,1111122' 
NDBC,ioos:station:NOAA.NDBC:CDRF1:1,2015-08-08T04:00:00Z,29.1360,-83.0290,10.0,2.1,70.0,2.1,'1111122,1111122,1111122' 
NDBC,ioos:station:NOAA.NDBC:CDRF1:1,2015-08-08T05:00:00Z,29.1360,-83.0290,10.0,2.6,260.0,4.6,'1111122,1111122,1111122' 
NDBC,ioos:station:NOAA.NDBC:CDRF1:1,2015-08-08T06:00:00Z,29.1360,-83.0290,10.0,5.7,260.0,7.7,'1111122,1111122,1111122' 
NDBC,ioos:station:NOAA.NDBC:CDRF1:1,2015-08-08T08:00:00Z,29.1360,-83.0290,10.0,4.6,270.0,6.2,'1111122,1111122,1111122' 
NDBC,ioos:station:NOAA.NDBC:CDRF1:1,2015-08-08T09:00:00Z,29.1360,-83.0290,10.0,5.1,280.0,7.2,'1111122,1111122,1111122' 
NDBC,ioos:station:NOAA.NDBC:CDRF1:1,2015-08-08T10:00:00Z,29.1360,-83.0290,10.0,4.6,280.0,6.2,'1111122,1111122,1111122' 
NDBC,ioos:station:NOAA.NDBC:CDRF1:1,2015-08-08T12:00:00Z,29.1360,-83.0290,10.0,3.6,290.0,4.6,'1111122,1111122,1111122' 
NDBC,ioos:station:NOAA.NDBC:CDRF1:1,2015-08-08T13:00:00Z,29.1360,-83.0290,10.0,2.1,320.0,3.6,'1111122,1111122,1111122' 
NDBC,ioos:station:NOAA.NDBC:CDRF1:1,2015-08-08T14:00:00Z,29.1360,-83.0290,10.0,4.6,260.0,6.2,'1111122,1111122,1111122' 
NDBC,ioos:station:NOAA.NDBC:CDRF1:1,2015-08-08T15:00:00Z,29.1360,-83.0290,10.0,5.7,260.0,7.2,'1111122,1111122,1111122' 
NDBC,ioos:station:NOAA.NDBC:CDRF1:1,2015-08-08T16:00:00Z,29.1360,-83.0290,10.0,6.7,270.0,9.8,'1111122,1111122,1111122' 
NDBC,ioos:station:NOAA.NDBC:CDRF1:1,2015-08-08T17:00:00Z,29.1360,-83.0290,10.0,5.7,250.0,7.7,'1111122,1111122,1111122' 
NDBC,ioos:station:NOAA.NDBC:CDRF1:1,2015-08-08T18:00:00Z,29.1360,-83.0290,10.0,6.2,250.0,7.2,'1111122,1111122,1111122' 
NDBC,ioos:station:NOAA.NDBC:CDRF1:1,2015-08-08T19:00:00Z,29.1360,-83.0290,10.0,5.1,270.0,7.7,'1111122,1111122,1111122' 
NDBC,ioos:station:NOAA.NDBC:CDRF1:1,2015-08-08T20:00:00Z,29.1360,-83.0290,10.0,4.6,280.0,6.2,'1111122,1111122,1111122' 
NDBC,ioos:station:NOAA.NDBC:CDRF1:1,2015-08-08T21:00:00Z,29.1360,-83.0290,10.0,5.1,270.0,6.2,'1111122,1111122,1111122' 
NDBC,ioos:station:NOAA.NDBC:CDRF1:1,2015-08-08T22:00:00Z,29.1360,-83.0290,10.0,4.1,290.0,6.2,'1111122,1111122,1111122' 
NDBC,ioos:station:NOAA.NDBC:CDRF1:1,2015-08-08T23:00:00Z,29.1360,-83.0290,10.0,6.2,290.0,8.2,'1111122,1111122,1111122' 
NDBC,ioos:station:NOAA.NDBC:CDRF1:1,2015-08-09T00:00:00Z,29.1360,-83.0290,10.0,2.6,320.0,4.1,'1111122,1111122,1111122' 
NDBC,ioos:station:NOAA.NDBC:CDRF1:1,2015-08-09T01:00:00Z,29.1360,-83.0290,10.0,1.5,330.0,2.1,'1111122,1111122,1111122' 
NDBC,ioos:station:NOAA.NDBC:CDRF1:1,2015-08-09T02:00:00Z,29.1360,-83.0290,10.0,0.5,10.0,1.0,'1111122,1111122,1111122' 
NDBC,ioos:station:NOAA.NDBC:CDRF1:1,2015-08-09T03:00:00Z,29.1360,-83.0290,10.0,0.0,-9999.0,0.5,'1114422,1111122,1111122' 
NDBC,ioos:station:NOAA.NDBC:CDRF1:1,2015-08-09T05:00:00Z,29.1360,-83.0290,10.0,1.0,310.0,1.5,'1111122,1111122,1111122' 
NDBC,ioos:station:NOAA.NDBC:CDRF1:1,2015-08-09T06:00:00Z,29.1360,-83.0290,10.0,2.1,290.0,2.6,'1111122,1111122,1111122' 
NDBC,ioos:station:NOAA.NDBC:CDRF1:1,2015-08-09T07:00:00Z,29.1360,-83.0290,10.0,0.0,-9999.0,0.5,'1114422,1111122,1111122' 
NDBC,ioos:station:NOAA.NDBC:CDRF1:1,2015-08-09T08:00:00Z,29.1360,-83.0290,10.0,0.5,320.0,1.0,'1111122,1111122,1111122' 
NDBC,ioos:station:NOAA.NDBC:CDRF1:1,2015-08-09T09:00:00Z,29.1360,-83.0290,10.0,1.5,50.0,2.1,'1111122,1111122,1111122' 
NDBC,ioos:station:NOAA.NDBC:CDRF1:1,2015-08-09T10:00:00Z,29.1360,-83.0290,10.0,2.6,110.0,2.6,'1111122,1111122,1111122' 
NDBC,ioos:station:NOAA.NDBC:CDRF1:1,2015-08-09T11:00:00Z,29.1360,-83.0290,10.0,2.1,150.0,2.6,'1111122,1111122,1111122' 
NDBC,ioos:station:NOAA.NDBC:CDRF1:1,2015-08-09T12:00:00Z,29.1360,-83.0290,10.0,1.5,90.0,1.5,'1111122,1111122,1111122' 
NDBC,ioos:station:NOAA.NDBC:CDRF1:1,2015-08-09T13:00:00Z,29.1360,-83.0290,10.0,2.1,80.0,2.6,'1111122,1111122,1111122' 
NDBC,ioos:station:NOAA.NDBC:CDRF1:1,2015-08-09T14:00:00Z,29.1360,-83.0290,10.0,2.6,120.0,2.6,'1111122,1111122,1111122' 
NDBC,ioos:station:NOAA.NDBC:CDRF1:1,2015-08-09T15:00:00Z,29.1360,-83.0290,10.0,1.5,150.0,2.1,'1111122,1111122,1111122' 
NDBC,ioos:station:NOAA.NDBC:CDRF1:1,2015-08-09T16:00:00Z,29.1360,-83.0290,10.0,2.1,160.0,2.1,'1111122,1111122,1111122' 
NDBC,ioos:station:NOAA.NDBC:CDRF1:1,2015-08-09T17:00:00Z,29.1360,-83.0290,10.0,3.6,180.0,4.1,'1111122,1111122,1111122' 
NDBC,ioos:station:NOAA.NDBC:CDRF1:1,2015-08-09T18:00:00Z,29.1360,-83.0290,10.0,4.1,210.0,4.6,'1111122,1111122,1111122' 
NDBC,ioos:station:NOAA.NDBC:CDRF1:1,2015-08-09T19:00:00Z,29.1360,-83.0290,10.0,2.6,230.0,3.6,'1111122,1111122,1111122' 
NDBC,ioos:station:NOAA.NDBC:CDRF1:1,2015-08-09T20:00:00Z,29.1360,-83.0290,10.0,2.6,240.0,3.6,'1111122,1111122,1111122' 
NDBC,ioos:station:NOAA.NDBC:CDRF1:1,2015-08-09T21:00:00Z,29.1360,-83.0290,10.0,1.5,230.0,2.6,'1111122,1111122,1111122' 
NDBC,ioos:station:NOAA.NDBC:CDRF1:1,2015-08-09T22:00:00Z,29.1360,-83.0290,10.0,3.1,10.0,3.6,'1111122,1111122,1111122' 
NDBC,ioos:station:NOAA.NDBC:CDRF1:1,2015-08-09T23:00:00Z,29.1360,-83.0290,10.0,1.5,320.0,2.1,'1111122,1111122,1111122' 
NDBC,ioos:station:NOAA.NDBC:CDRF1:1,2015-08-10T01:00:00Z,29.1360,-83.0290,10.0,1.5,20.0,2.1,'1111122,1111122,1111122' 
NDBC,ioos:station:NOAA.NDBC:CDRF1:1,2015-08-10T02:00:00Z,29.1360,-83.0290,10.0,2.6,40.0,3.1,'1111122,1111122,1111122' 
NDBC,ioos:station:NOAA.NDBC:CDRF1:1,2015-08-10T03:00:00Z,29.1360,-83.0290,10.0,5.7,90.0,6.2,'1111122,1111122,1111122' 
NDBC,ioos:station:NOAA.NDBC:CDRF1:1,2015-08-10T04:00:00Z,29.1360,-83.0290,10.0,7.7,110.0,8.2,'1111122,1111122,1111122' 
NDBC,ioos:station:NOAA.NDBC:CDRF1:1,2015-08-10T05:00:00Z,29.1360,-83.0290,10.0,6.7,110.0,7.2,'1111122,1111122,1111122' 
NDBC,ioos:station:NOAA.NDBC:CDRF1:1,2015-08-10T06:00:00Z,29.1360,-83.0290,10.0,6.7,100.0,7.2,'1111122,1111122,1111122' 
NDBC,ioos:station:NOAA.NDBC:CDRF1:1,2015-08-10T07:00:00Z,29.1360,-83.0290,10.0,6.2,100.0,6.7,'1111122,1111122,1111122' 
NDBC,ioos:station:NOAA.NDBC:CDRF1:1,2015-08-10T08:00:00Z,29.1360,-83.0290,10.0,5.7,110.0,6.2,'1111122,1111122,1111122' 
NDBC,ioos:station:NOAA.NDBC:CDRF1:1,2015-08-10T09:00:00Z,29.1360,-83.0290,10.0,5.1,110.0,5.7,'1111122,1111122,1111122' 
NDBC,ioos:station:NOAA.NDBC:CDRF1:1,2015-08-10T10:00:00Z,29.1360,-83.0290,10.0,3.6,70.0,4.6,'1111122,1111122,1111122' 
NDBC,ioos:station:NOAA.NDBC:CDRF1:1,2015-08-10T11:00:00Z,29.1360,-83.0290,10.0,4.6,80.0,5.1,'1111122,1111122,1111122' 
NDBC,ioos:station:NOAA.NDBC:CDRF1:1,2015-08-10T12:00:00Z,29.1360,-83.0290,10.0,3.6,70.0,4.1,'1111122,1111122,1111122' 
NDBC,ioos:station:NOAA.NDBC:CDRF1:1,2015-08-10T13:00:00Z,29.1360,-83.0290,10.0,3.6,80.0,4.6,'1111122,1111122,1111122' 
NDBC,ioos:station:NOAA.NDBC:CDRF1:1,2015-08-10T14:00:00Z,29.1360,-83.0290,10.0,3.6,80.0,4.1,'1111122,1111122,1111122' 
NDBC,ioos:station:NOAA.NDBC:CDRF1:1,2015-08-10T15:00:00Z,29.1360,-83.0290,10.0,3.1,60.0,3.6,'1111122,1111122,1111122' 
NDBC,ioos:station:NOAA.NDBC:CDRF1:1,2015-08-10T18:00:00Z,29.1360,-83.0290,10.0,2.6,140.0,3.1,'1111122,1111122,1111122' 
NDBC,ioos:station:NOAA.NDBC:CDRF1:1,2015-08-10T21:00:00Z,29.1360,-83.0290,10.0,3.1,270.0,4.1,'1111122,1111122,1111122' 
NDBC,ioos:station:NOAA.NDBC:CDRF1:1,2015-08-10T22:00:00Z,29.1360,-83.0290,10.0,4.1,280.0,4.6,'1111122,1111122,1111122' 
NDBC,ioos:station:NOAA.NDBC:CDRF1:1,2015-08-11T01:00:00Z,29.1360,-83.0290,10.0,1.0,320.0,1.5,'1111122,1111122,1111122' 
NDBC,ioos:station:NOAA.NDBC:CDRF1:1,2015-08-11T02:00:00Z,29.1360,-83.0290,10.0,1.0,340.0,1.5,'1111122,1111122,1111122' 
NDBC,ioos:station:NOAA.NDBC:CDRF1:1,2015-08-11T03:00:00Z,29.1360,-83.0290,10.0,4.1,60.0,4.6,'1111122,1111122,1111122' 
NDBC,ioos:station:NOAA.NDBC:CDRF1:1,2015-08-11T04:00:00Z,29.1360,-83.0290,10.0,5.1,150.0,5.7,'1111122,1111122,1111122' 
NDBC,ioos:station:NOAA.NDBC:CDRF1:1,2015-08-11T05:00:00Z,29.1360,-83.0290,10.0,6.2,150.0,6.7,'1111122,1111122,1111122' 
NDBC,ioos:station:NOAA.NDBC:CDRF1:1,2015-08-11T06:00:00Z,29.1360,-83.0290,10.0,5.7,150.0,6.7,'1111122,1111122,1111122' 
NDBC,ioos:station:NOAA.NDBC:CDRF1:1,2015-08-11T07:00:00Z,29.1360,-83.0290,10.0,6.2,150.0,6.7,'1111122,1111122,1111122' 
NDBC,ioos:station:NOAA.NDBC:CDRF1:1,2015-08-11T08:00:00Z,29.1360,-83.0290,10.0,4.1,160.0,4.6,'1111122,1111122,1111122' 
NDBC,ioos:station:NOAA.NDBC:CDRF1:1,2015-08-11T09:00:00Z,29.1360,-83.0290,10.0,3.1,150.0,3.6,'1111122,1111122,1111122' 
NDBC,ioos:station:NOAA.NDBC:CDRF1:1,2015-08-11T10:00:00Z,29.1360,-83.0290,10.0,3.6,140.0,4.1,'1111122,1111122,1111122' 
NDBC,ioos:station:NOAA.NDBC:CDRF1:1,2015-08-11T11:00:00Z,29.1360,-83.0290,10.0,2.1,50.0,2.6,'1111122,1111122,1111122' 
NDBC,ioos:station:NOAA.NDBC:CDRF1:1,2015-08-11T12:00:00Z,29.1360,-83.0290,10.0,2.6,90.0,3.1,'1111122,1111122,1111122' 
NDBC,ioos:station:NOAA.NDBC:CDRF1:1,2015-08-11T13:00:00Z,29.1360,-83.0290,10.0,2.6,130.0,3.1,'1111122,1111122,1111122' 
NDBC,ioos:station:NOAA.NDBC:CDRF1:1,2015-08-11T14:00:00Z,29.1360,-83.0290,10.0,3.6,170.0,4.1,'1111122,1111122,1111122' 
NDBC,ioos:station:NOAA.NDBC:CDRF1:1,2015-08-11T15:00:00Z,29.1360,-83.0290,10.0,2.6,210.0,3.1,'1111122,1111122,1111122' 
NDBC,ioos:station:NOAA.NDBC:CDRF1:1,2015-08-11T16:00:00Z,29.1360,-83.0290,10.0,2.6,210.0,3.1,'1111122,1111122,1111122' 
NDBC,ioos:station:NOAA.NDBC:CDRF1:1,2015-08-11T18:00:00Z,29.1360,-83.0290,10.0,2.1,250.0,4.1,'1111122,1111122,1111122' 
NDBC,ioos:station:NOAA.NDBC:CDRF1:1,2015-08-11T19:00:00Z,29.1360,-83.0290,10.0,2.6,250.0,3.6,'1111122,1111122,1111122' 
NDBC,ioos:station:NOAA.NDBC:CDRF1:1,2015-08-11T21:00:00Z,29.1360,-83.0290,10.0,3.6,290.0,5.1,'1111122,1111122,1111122' 
NDBC,ioos:station:NOAA.NDBC:CDRF1:1,2015-08-11T22:00:00Z,29.1360,-83.0290,10.0,4.1,260.0,5.1,'1111122,1111122,1111122' 
NDBC,ioos:station:NOAA.NDBC:CDRF1:1,2015-08-11T23:00:00Z,29.1360,-83.0290,10.0,3.1,270.0,4.6,'1111122,1111122,1111122' 
NDBC,ioos:station:NOAA.NDBC:CDRF1:1,2015-08-12T01:00:00Z,29.1360,-83.0290,10.0,3.6,270.0,4.1,'1111122,1111122,1111122' 
NDBC,ioos:station:NOAA.NDBC:CDRF1:1,2015-08-12T02:00:00Z,29.1360,-83.0290,10.0,3.6,270.0,4.6,'1111122,1111122,1111122' 
NDBC,ioos:station:NOAA.NDBC:CDRF1:1,2015-08-12T03:00:00Z,29.1360,-83.0290,10.0,3.1,260.0,3.6,'1111122,1111122,1111122' 
NDBC,ioos:station:NOAA.NDBC:CDRF1:1,2015-08-12T04:00:00Z,29.1360,-83.0290,10.0,3.6,250.0,5.1,'1111122,1111122,1111122' 
NDBC,ioos:station:NOAA.NDBC:CDRF1:1,2015-08-12T05:00:00Z,29.1360,-83.0290,10.0,3.6,250.0,5.1,'1111122,1111122,1111122' 
NDBC,ioos:station:NOAA.NDBC:CDRF1:1,2015-08-12T06:00:00Z,29.1360,-83.0290,10.0,4.6,250.0,6.2,'1111122,1111122,1111122' 
NDBC,ioos:station:NOAA.NDBC:CDRF1:1,2015-08-12T07:00:00Z,29.1360,-83.0290,10.0,4.1,270.0,5.7,'1111122,1111122,1111122' 
NDBC,ioos:station:NOAA.NDBC:CDRF1:1,2015-08-12T08:00:00Z,29.1360,-83.0290,10.0,4.6,260.0,6.2,'1111122,1111122,1111122' 
NDBC,ioos:station:NOAA.NDBC:CDRF1:1,2015-08-12T09:00:00Z,29.1360,-83.0290,10.0,4.6,260.0,5.7,'1111122,1111122,1111122' 
NDBC,ioos:station:NOAA.NDBC:CDRF1:1,2015-08-12T10:00:00Z,29.1360,-83.0290,10.0,4.1,270.0,5.1,'1111122,1111122,1111122' 
NDBC,ioos:station:NOAA.NDBC:CDRF1:1,2015-08-12T11:00:00Z,29.1360,-83.0290,10.0,3.1,270.0,4.6,'1111122,1111122,1111122' 
NDBC,ioos:station:NOAA.NDBC:CDRF1:1,2015-08-12T12:00:00Z,29.1360,-83.0290,10.0,3.1,270.0,4.6,'1111122,1111122,1111122' 
NDBC,ioos:station:NOAA.NDBC:CDRF1:1,2015-08-12T13:00:00Z,29.1360,-83.0290,10.0,3.1,280.0,4.6,'1111122,1111122,1111122' 
NDBC,ioos:station:NOAA.NDBC:CDRF1:1,2015-08-12T14:00:00Z,29.1360,-83.0290,10.0,3.1,270.0,4.1,'1111122,1111122,1111122' 
NDBC,ioos:station:NOAA.NDBC:CDRF1:1,2015-08-12T15:00:00Z,29.1360,-83.0290,10.0,4.1,300.0,5.1,'1111122,1111122,1111122' 
NDBC,ioos:station:NOAA.NDBC:CDRF1:1,2015-08-12T16:00:00Z,29.1360,-83.0290,10.0,5.1,260.0,6.7,'1111122,1111122,1111122' 
NDBC,ioos:station:NOAA.NDBC:CDRF1:1,2015-08-12T17:00:00Z,29.1360,-83.0290,10.0,4.6,260.0,5.7,'1111122,1111122,1111122' 
NDBC,ioos:station:NOAA.NDBC:CDRF1:1,2015-08-12T18:00:00Z,29.1360,-83.0290,10.0,5.1,260.0,7.2,'1111122,1111122,1111122' 